Home > Time Zones > World Clock > Weather > Fiji > Nadi > Past weeks

Flag for Fiji Weather past 2 weeks in Nadi, Fiji

Now
86 °F

Broken clouds.


Feels Like: 93 °F
Forecast: 78 / 89 °F
Wind: 8 mph from East

Location: Nandi

Current Time: Apr 2, 2015 at 5:02:32 PM

Latest Report: Apr 2, 2015 at 4:00 PM


Visibility: N/A

Pressure: 29.83 "Hg

Humidity: 66%

Dew point: 73 °F

Location of NadiLocation

Historic Weather in Nadi — Graph

°F

Nadi temperature yesterday

Maximum temperature yesterday: 88 °F (at 1:00 PM)
Minimum temperature yesterday: 72 °F (at 2:00 AM)
Average temperature yesterday: 79 °F

Past Weeks' High & Low Weather Summary

 TemperatureHumidityPressure
High90 °F (Mar 28, 1:00 PM)100% (Mar 19, 4:00 AM)29.95 "Hg (Mar 19, 4:00 AM)
Low68 °F (Mar 25, 3:00 AM)49% (Mar 29, 12:00 PM)29.62 "Hg (Mar 21, 3:00 PM)
Average79 °F79%29.82 "Hg
* Reported Mar 18 4:00 PM — Apr 2 4:00 PM, Nadi, Weather by CustomWeather, © 2015

Note: Actual official high and low records may vary slightly from our data, if they occured in-between our weather recording intervals... More about our weather records

Advertising

Nadi weather history for previous 24 hours

 ConditionsComfort  
Time TempWeatherWind HumidityBarometerVisibility
4:00 PM
Thu, Apr 2
86 °FBroken clouds.8 mph66%29.83 "HgN/A
3:00 PM84 °FBroken clouds.6 mph74%29.83 "HgN/A
2:00 PM88 °FBroken clouds.7 mph70%29.83 "HgN/A
1:00 PM84 °FBroken clouds.7 mph74%29.86 "HgN/A
12:00 PM88 °FBroken clouds.7 mph62%29.89 "HgN/A
11:00 AM90 °FBroken clouds.10 mph59%29.89 "HgN/A
10:00 AM88 °FPartly sunny.9 mph62%29.89 "HgN/A
9:00 AM82 °FPartly sunny.5 mph74%29.89 "HgN/A
8:00 AM79 °FPartly sunny.5 mph84%29.89 "HgN/A
7:00 AM73 °FScattered clouds.5 mph94%29.86 "HgN/A
6:00 AM73 °FPassing clouds.5 mph94%29.86 "HgN/A
5:00 AM73 °FPassing clouds.6 mph94%29.83 "HgN/A
4:00 AM73 °FPassing clouds.5 mph94%29.83 "HgN/A
3:00 AM73 °FPassing clouds.5 mph94%29.83 "HgN/A
2:00 AM75 °FPassing clouds.6 mph89%29.86 "HgN/A
1:00 AM75 °FPassing clouds.3 mph89%29.86 "HgN/A
12:00 AM75 °FPassing clouds.5 mph89%29.89 "HgN/A
11:00 PM
Wed, Apr 1
77 °FPassing clouds.3 mph83%29.89 "HgN/A
10:00 PM79 °FPassing clouds.2 mph79%29.89 "HgN/A
9:00 PM79 °FPassing clouds.5 mph79%29.89 "HgN/A
8:00 PM79 °FPassing clouds.9 mph89%29.86 "HgN/A
7:00 PM81 °FPassing clouds.5 mph79%29.86 "HgN/A
6:00 PM82 °FScattered clouds.2 mph79%29.83 "HgN/A
5:00 PM82 °FScattered clouds.3 mph79%29.83 "HgN/A
Weather by CustomWeather, © 2015

See weather overviewHow to use our weather pages